| time (UTC) | temp C | wind direction | speed KPH | gust KPH | rain 1hr cm | rain 24hr cm | rain mn cm | humidity % | barometer mb |
| 20260504041546 | 24 | 69 | 9.7 | 12.9 | 0.00 | 0.00 | 0.00 | 78 | 1018.9 |
| 20260504040107 | 24 | 49 | 6.4 | 12.9 | 0.00 | 0.00 | 0.00 | 78 | 1019.0 |
| 20260504034541 | 24 | 69 | 6.4 | 11.3 | 0.00 | 0.00 | 0.00 | 78 | 1018.7 |
| 20260504033039 | 24 | 46 | 8.0 | 14.5 | 0.00 | 0.00 | 0.00 | 77 | 1018.5 |
| 20260504031551 | 25 | 45 | 9.7 | 16.1 | 0.00 | 0.00 | 0.00 | 77 | 1018.4 |
| 20260504030049 | 25 | 96 | 9.7 | 17.7 | 0.00 | 0.00 | 0.00 | 77 | 1018.4 |
| 20260504024547 | 24 | 78 | 14.5 | 20.9 | 0.00 | 0.00 | 0.00 | 76 | 1018.2 |
| 20260504023045 | 24 | 90 | 12.9 | 19.3 | 0.00 | 0.00 | 0.00 | 76 | 1018.1 |
| 20260504021552 | 24 | 84 | 14.5 | 17.7 | 0.00 | 0.00 | 0.00 | 75 | 1017.9 |
| 20260504020048 | 24 | 77 | 12.9 | 19.3 | 0.00 | 0.00 | 0.00 | 77 | 1017.6 |
| 20260504014559 | 24 | 83 | 12.9 | 19.3 | 0.00 | 0.00 | 0.00 | 77 | 1017.5 |
| 20260504013046 | 24 | 56 | 16.1 | 25.7 | 0.00 | 0.00 | 0.00 | 77 | 1017.3 |
| 20260504011543 | 24 | 78 | 16.1 | 27.4 | 0.00 | 0.00 | 0.00 | 77 | 1017.4 |
| 20260504010049 | 24 | 76 | 16.1 | 25.7 | 0.00 | 0.00 | 0.00 | 77 | 1017.4 |
| 20260504004545 | 24 | 67 | 20.9 | 27.4 | 0.00 | 0.00 | 0.00 | 76 | 1017.3 |
| 20260504003055 | 24 | 94 | 19.3 | 25.7 | 0.00 | 0.00 | 0.00 | 77 | 1017.4 |
| 20260504001604 | 24 | 103 | 20.9 | 27.4 | 0.00 | 0.00 | 0.00 | 78 | 1017.1 |
| 20260504000047 | 24 | 59 | 19.3 | 25.7 | 0.00 | 0.00 | 0.00 | 79 | 1017.2 |
| 20260503234548 | 24 | 30 | 17.7 | 30.6 | 0.00 | 0.00 | 0.00 | 78 | 1017.2 |
| 20260503233042 | 24 | 341 | 17.7 | 29.0 | 0.00 | 0.00 | 0.00 | 78 | 1017.2 |
| 20260503231548 | 23 | 65 | 20.9 | 30.6 | 0.00 | 0.00 | 0.00 | 78 | 1017.3 |
| 20260503230046 | 23 | 64 | 25.7 | 32.2 | 0.00 | 0.00 | 0.00 | 79 | 1017.4 |
| 20260503224546 | 23 | 36 | 22.5 | 32.2 | 0.00 | 0.00 | 0.00 | 78 | 1017.4 |
| 20260503223043 | 23 | 77 | 24.1 | 32.2 | 0.00 | 0.00 | 0.00 | 78 | 1017.7 |
| 20260503221553 | 23 | 82 | 22.5 | 32.2 | 0.00 | 0.00 | 0.00 | 78 | 1017.9 |
| 20260503220050 | 23 | 65 | 24.1 | 30.6 | 0.00 | 0.00 | 0.00 | 77 | 1018.1 |
| 20260503214547 | 23 | 73 | 20.9 | 29.0 | 0.00 | 0.00 | 0.00 | 77 | 1018.2 |
| 20260503213047 | 23 | 73 | 20.9 | 24.1 | 0.00 | 0.00 | 0.00 | 77 | 1018.4 |
| 20260503211545 | 23 | 58 | 17.7 | 25.7 | 0.00 | 0.00 | 0.00 | 75 | 1018.7 |
| 20260503210041 | 23 | 72 | 19.3 | 24.1 | 0.00 | 0.00 | 0.00 | 75 | 1018.9 |
| 20260503204547 | 23 | 77 | 17.7 | 25.7 | 0.00 | 0.00 | 0.00 | 74 | 1019.2 |
| 20260503203047 | 23 | 62 | 20.9 | 27.4 | 0.00 | 0.00 | 0.00 | 74 | 1019.5 |
| 20260503201546 | 23 | 67 | 22.5 | 29.0 | 0.00 | 0.00 | 0.00 | 73 | 1019.6 |
| 20260503200050 | 24 | 39 | 22.5 | 29.0 | 0.00 | 0.00 | 0.00 | 72 | 1019.9 |
| 20260503194548 | 23 | 37 | 17.7 | 25.7 | 0.00 | 0.00 | 0.00 | 72 | 1020.1 |
| 20260503193044 | 23 | 30 | 16.1 | 29.0 | 0.00 | 0.00 | 0.00 | 73 | 1020.4 |
| 20260503191546 | 24 | 60 | 14.5 | 22.5 | 0.00 | 0.00 | 0.00 | 72 | 1020.8 |
| 20260503190046 | 24 | 23 | 14.5 | 22.5 | 0.00 | 0.00 | 0.00 | 68 | 1020.9 |
| 20260503184545 | 24 | 15 | 12.9 | 22.5 | 0.00 | 0.00 | 0.00 | 68 | 1021.2 |
| 20260503183107 | 24 | 340 | 12.9 | 19.3 | 0.00 | 0.00 | 0.00 | 68 | 1021.4 |
| 20260503181618 | 23 | 311 | 14.5 | 22.5 | 0.00 | 0.00 | 0.00 | 68 | 1021.6 |
| 20260503180047 | 23 | 337 | 16.1 | 20.9 | 0.00 | 0.00 | 0.00 | 68 | 1021.6 |
| 20260503174544 | 23 | 347 | 11.3 | 19.3 | 0.00 | 0.00 | 0.00 | 68 | 1021.8 |
| 20260503173055 | 23 | 358 | 14.5 | 19.3 | 0.00 | 0.00 | 0.00 | 68 | 1022.0 |
| 20260503171547 | 23 | 15 | 3.2 | 11.3 | 0.00 | 0.00 | 0.00 | 68 | 1021.9 |
| 20260503100104 | 21 | 295 | 3.2 | 11.3 | 0.00 | 0.00 | 0.00 | 69 | 1019.8 |
| 20260503081542 | 21 | 329 | 16.1 | 35.4 | 0.00 | 0.00 | 0.00 | 64 | 1020.3 |
| 20260503071558 | 21 | 306 | 17.7 | 25.7 | 0.00 | 0.00 | 0.00 | 66 | 1020.5 |
| 20260503070106 | 21 | 310 | 16.1 | 20.9 | 0.00 | 0.00 | 0.00 | 66 | 1020.4 |
| 20260503060113 | 21 | 321 | 11.3 | 17.7 | 0.00 | 0.00 | 0.00 | 66 | 1020.8 |
| 20260503054546 | 21 | 317 | 14.5 | 19.3 | 0.00 | 0.00 | 0.00 | 66 | 1020.7 |
| 20260503053044 | 21 | 326 | 22.5 | 32.2 | 0.00 | 0.00 | 0.00 | 66 | 1020.6 |
| 20260503051544 | 21 | 309 | 20.9 | 32.2 | 0.00 | 0.00 | 0.00 | 66 | 1020.7 |
| 20260503050049 | 21 | 318 | 17.7 | 27.4 | 0.00 | 0.00 | 0.00 | 66 | 1020.6 |
| 20260503044542 | 21 | 316 | 19.3 | 35.4 | 0.00 | 0.00 | 0.00 | 66 | 1020.5 |
| 20260503043042 | 21 | 327 | 19.3 | 32.2 | 0.00 | 0.00 | 0.00 | 66 | 1020.3 |